Flag for U.S.A. Weather past 2 weeks in Lynchburg, Virginia, U.S.A.

Now
61 °F

Scattered clouds.


Feels Like: 61 °F
Forecast: 56 / 79 °F
Wind: No wind

Location: Lynchburg Regional Airport

Current Time: Jul 30, 2014 at 9:13:40 AM

Latest Report: Jul 30, 2014 at 7:54 AM


Visibility: 10 mi

Pressure: 30.10 "Hg

Humidity: 83%

Dew point: 56 °F

Location of LynchburgLocation

Historic Weather in Lynchburg — Graph

°F

Lynchburg temperature yesterday

Maximum temperature yesterday: 76 °F (at 3:54 PM)
Minimum temperature yesterday: 57 °F (at 5:54 AM)
Average temperature yesterday: 67 °F

Past Weeks' High & Low Weather Summary

 TemperatureHumidityPressure
High93 °F (Jul 23, 3:54 PM)100% (Jul 16, 2:54 AM)30.24 "Hg (Jul 16, 2:54 AM)
Low54 °F (Jul 30, 5:54 AM)28% (Jul 17, 4:54 PM)29.67 "Hg (Jul 28, 3:54 AM)
Average73 °F74%30.00 "Hg
* Reported Jul 15 7:54 AM — Jul 30 7:54 AM, Lynchburg, Weather by CustomWeather, © 2014

Note: Actual official high and low records may vary slightly from our data, if they occured in-between our weather recording intervals... More about our weather records

Advertising

Lynchburg weather history for previous 24 hours

 ConditionsComfort  
Time TempWeatherWind HumidityBarometerVisibility
7:54 AM
Jul 30
61 °FScattered clouds.No wind83%30.10 "Hg10 mi
6:54 AM56 °FOvercast.No wind97%30.09 "Hg10 mi
5:54 AM54 °FPassing clouds.No wind100%30.08 "Hg10 mi
4:54 AM55 °FClear.No wind96%30.07 "Hg10 mi
3:54 AM57 °FClear.No wind90%30.06 "Hg10 mi
2:54 AM58 °FClear.No wind87%30.05 "Hg10 mi
1:54 AM60 °FClear.No wind83%30.05 "Hg10 mi
12:54 AM64 °FPassing clouds.No wind75%30.05 "Hg10 mi
11:54 PM
Jul 29
66 °FPassing clouds.5 mph78%30.04 "Hg10 mi
10:54 PM67 °FMostly cloudy.6 mph79%30.03 "Hg10 mi
9:54 PM65 °FPassing clouds.3 mph85%30.01 "Hg10 mi
8:54 PM66 °FScattered clouds.No wind84%29.99 "Hg10 mi
7:54 PM70 °FPartly sunny.No wind76%29.97 "Hg10 mi
6:54 PM73 °FBroken clouds.No wind62%29.96 "Hg10 mi
5:54 PM76 °FOvercast.3 mph48%29.96 "Hg10 mi
4:54 PM74 °FOvercast.8 mph53%29.95 "Hg10 mi
3:54 PM76 °FPassing clouds.No wind48%29.94 "Hg10 mi
2:54 PM75 °FSunny.6 mph52%29.94 "Hg10 mi
1:54 PM73 °FCloudy.5 mph55%29.96 "Hg10 mi
12:54 PM73 °FOvercast.6 mph53%29.96 "Hg10 mi
11:54 AM74 °FScattered clouds.3 mph52%29.97 "Hg10 mi
10:54 AM72 °FPassing clouds.No wind52%29.97 "Hg10 mi
9:54 AM70 °FSunny.3 mph57%29.98 "Hg10 mi
Weather by CustomWeather, © 2014

See weather overviewHow to use our weather pages